Simultaneous Nadir Overpasses (SNOs) Predictions

Prediction of SNOs between GOES-17 and METOP-C Satellite Orbit:

Table of predicted SNOs for the next 14.0 days since TLE Epoch: 5/11/2024
Index Date Time (GOES-17) GOES-17 Lat,Lon METOP-C Lat,Lon Distance(km) Time Diff (sec)
1 05/11/2024 04:30:47 0.00,-104.70 0.00,-104.93 25.70 80
2 05/13/2024 16:28:59 0.01,-104.70 -0.07,-104.48 25.25 80
3 05/15/2024 04:47:58 -0.01,-104.70 -0.99,-109.07 497.77 80
4 05/16/2024 04:24:39 -0.01,-104.70 0.14,-104.07 71.90 80
5 05/17/2024 16:43:30 0.01,-104.70 0.86,-108.63 446.55 80
6 05/18/2024 16:25:30 0.01,-104.71 -0.23,-103.62 123.49 80
7 05/20/2024 04:44:29 -0.01,-104.71 -0.81,-108.21 398.66 80
8 05/21/2024 04:21:10 -0.01,-104.71 0.35,-103.22 171.28 80
9 05/22/2024 16:39:59 0.01,-104.72 0.72,-107.76 347.11 80
10 05/23/2024 16:21:59 0.01,-104.72 -0.45,-102.77 222.73 80
